Weather History for Monticello, AR

Change the Weather History Date:

Sunday, February 2, 2014

  Actual Average Record
Temperature  
Mean Temperature 48 °F -  
Max Temperature 64 °F 56 °F 78 °F (1974)
Min Temperature 33 °F 33 °F -6 °F (1951)
Degree Days  
Heating Degree Days 16    
Moisture  
Dew Point 37 °F    
Average Humidity 90    
Maximum Humidity 93    
Minimum Humidity 81    
Precipitation  
Precipitation 1.59 in - - ()
Sea Level Pressure  
Sea Level Pressure 30.04 in    
Wind  
Wind Speed 10 mph (NNE)    
Max Wind Speed 15 mph    
Max Gust Speed 26 mph    
Visibility 6 miles    
Events Rain , Thunderstorm    
Averages and records for this station are not official NWS values.
T = Trace of Precipitation, MM = Missing Value Source: NWS Daily Summary

Daily Weather History Graph

Daily Weather History Graph

Search for Another Location

Airport:

Trip Planner

Search our weather history database for the weather conditions in past years. The results will help you decide how hot, cold, wet, or windy it might be!

Date:

Astronomy

Feb. 02, 2014 Rise Set
Actual Time 7:02 AM CST 5:39 PM CST
Civil Twilight 6:36 AM CST 6:05 PM CST
Nautical Twilight 6:06 AM CST 6:35 PM CST
Astronomical Twilight 5:37 AM CST 7:04 PM CST
Moon 8:41 AM CST (2/2) 9:10 PM CST (2/2)
Length of Visible Light 11h 28m
Length of Day
10h 36m
Waxing Crescent, 11% of the Moon is Illuminated
Feb 2
Waxing Crescent
Feb 6
First Quarter
Feb 14
Full
Feb 22
Last Quarter
Mar 1
New

Hourly Weather History & Observations

Time (CST) Temp. Windchill Dew Point Humidity Pressure Visibility Wind Dir Wind Speed Gust Speed Precip Events Conditions
12:53 AM 63.0 °F - 57.0 °F 81% 29.91 in 10.0 mi SSW 12.7 mph 17.3 mph N/A   Overcast
1:37 AM 62.6 °F - 57.2 °F 82% 29.92 in 10.0 mi SSW 12.7 mph 18.4 mph N/A   Overcast
1:44 AM 62.6 °F - 57.2 °F 82% 29.92 in 10.0 mi SSW 10.4 mph 18.4 mph N/A   Overcast
1:53 AM 64.0 °F - 59.0 °F 84% 29.92 in 10.0 mi SSW 11.5 mph 18.4 mph 0.00 in Rain Light Rain
2:10 AM 64.4 °F - 59.0 °F 83% 29.93 in 10.0 mi SW 6.9 mph - 0.00 in Rain Light Rain
2:33 AM 57.2 °F - 53.6 °F 88% 29.95 in 7.0 mi North 10.4 mph 20.7 mph 0.00 in Rain Light Rain
2:44 AM 51.8 °F - 48.2 °F 88% 29.96 in 2.5 mi North 9.2 mph - 0.09 in Rain Heavy Rain
2:53 AM 48.9 °F - 46.9 °F 93% 29.97 in 2.5 mi Variable 5.8 mph 16.1 mph 0.13 in Rain Heavy Rain
2:57 AM 48.2 °F - 46.4 °F 93% 29.97 in 3.0 mi Calm Calm - 0.02 in Rain Rain
3:53 AM 46.0 °F 42.5 °F 44.1 °F 93% 29.99 in 9.0 mi North 6.9 mph - 0.07 in Rain Light Rain
4:53 AM 45.0 °F 41.8 °F 42.1 °F 90% 30.01 in 10.0 mi Variable 5.8 mph 18.4 mph 0.03 in Rain Light Rain
5:03 AM 44.6 °F 40.2 °F 42.8 °F 93% 30.02 in 10.0 mi North 8.1 mph 16.1 mph 0.00 in Rain Light Rain
5:53 AM 43.0 °F 39.5 °F 41.0 °F 93% 30.03 in 10.0 mi Variable 5.8 mph - 0.01 in Rain Light Rain
6:53 AM 39.9 °F 33.4 °F 37.9 °F 93% 30.04 in 4.0 mi NNE 10.4 mph 17.3 mph 0.09 in Rain Rain
7:15 AM 39.2 °F 32.5 °F 37.4 °F 93% 30.05 in 8.0 mi NE 10.4 mph 17.3 mph 0.03 in Rain Rain
7:53 AM 39.9 °F 32.9 °F 37.0 °F 89% 30.05 in 5.0 mi NE 11.5 mph 24.2 mph 0.09 in Rain Rain
8:07 AM 39.2 °F 31.2 °F 37.4 °F 93% 30.07 in 1.8 mi NE 13.8 mph 17.3 mph 0.09 in Rain Heavy Rain
8:18 AM 39.2 °F 33.0 °F 37.4 °F 93% 30.06 in 3.0 mi NNE 9.2 mph 24.2 mph 0.13 in Rain Rain
8:26 AM 39.2 °F 34.2 °F 37.4 °F 93% 30.05 in 2.5 mi Variable 6.9 mph 21.9 mph 0.16 in Rain Heavy Rain
8:30 AM 39.2 °F 32.0 °F 37.4 °F 93% 30.04 in 3.0 mi NNE 11.5 mph 19.6 mph 0.17 in Rain Rain
8:36 AM 39.2 °F 35.0 °F 37.4 °F 93% 30.06 in 6.0 mi Variable 5.8 mph 18.4 mph 0.17 in Rain Light Rain
8:53 AM 39.0 °F 32.3 °F 37.0 °F 93% 30.08 in 4.0 mi NE 10.4 mph 18.4 mph 0.19 in Rain Rain
9:53 AM 39.0 °F 33.4 °F 36.0 °F 89% 30.08 in 3.0 mi NNE 8.1 mph 18.4 mph 0.02 in Rain Light Rain
10:04 AM 39.2 °F 32.5 °F 35.6 °F 87% 30.09 in 4.0 mi North 10.4 mph 19.6 mph 0.00 in Rain Light Rain
10:18 AM 39.2 °F 33.6 °F 35.6 °F 87% 30.08 in 8.0 mi NNE 8.1 mph 20.7 mph 0.00 in Rain Light Rain
10:53 AM 37.9 °F 30.0 °F 36.0 °F 93% 30.06 in 10.0 mi NE 12.7 mph 23.0 mph 0.00 in Rain Light Rain
11:05 AM 39.2 °F 34.2 °F 35.6 °F 87% 30.06 in 10.0 mi Variable 6.9 mph 21.9 mph 0.00 in   Overcast
11:19 AM 37.4 °F 31.4 °F 35.6 °F 93% 30.07 in 10.0 mi NNE 8.1 mph 20.7 mph 0.00 in   Overcast
11:53 AM 37.9 °F 30.9 °F 35.1 °F 89% 30.04 in 10.0 mi NNE 10.4 mph 20.7 mph 0.01 in Rain Light Rain
12:53 PM 37.0 °F 31.0 °F 34.0 °F 89% 30.04 in 5.0 mi NNE 8.1 mph 20.7 mph 0.01 in Rain Light Rain
1:09 PM 37.4 °F 29.8 °F 33.8 °F 87% 30.02 in 3.0 mi NNE 11.5 mph 21.9 mph 0.00 in Rain Light Rain
1:17 PM 37.4 °F 30.8 °F 33.8 °F 87% 30.02 in 3.0 mi NNE 9.2 mph 21.9 mph 0.01 in Rain Light Rain
1:37 PM 37.4 °F 31.4 °F 33.8 °F 87% 30.01 in 4.0 mi NE 8.1 mph 18.4 mph 0.01 in Rain Light Rain
1:53 PM 36.0 °F 29.0 °F 34.0 °F 93% 30.00 in 3.0 mi NNE 9.2 mph 26.5 mph 0.01 in Rain Light Rain
2:03 PM 35.6 °F 29.9 °F 33.8 °F 93% 30.01 in 4.0 mi North 6.9 mph - 0.00 in Rain Light Rain
2:53 PM 35.1 °F 28.6 °F 32.0 °F 89% 30.04 in 4.0 mi NNW 8.1 mph 23.0 mph 0.01 in Rain Light Rain
3:03 PM 35.6 °F 27.5 °F 32.0 °F 87% 30.03 in 2.5 mi North 11.5 mph 19.6 mph 0.01 in Rain Light Rain
3:12 PM 35.6 °F 28.6 °F 32.0 °F 87% 30.05 in 4.0 mi North 9.2 mph 17.3 mph 0.02 in Rain Rain
3:45 PM 33.8 °F 23.9 °F 32.0 °F 93% 30.01 in 6.0 mi NE 15.0 mph 24.2 mph 0.03 in Rain Light Rain
3:53 PM 34.0 °F 25.0 °F 30.9 °F 89% 30.01 in 4.0 mi NNE 12.7 mph 24.2 mph 0.03 in Rain Light Rain
4:04 PM 33.8 °F 25.3 °F 32.0 °F 93% 30.01 in 2.5 mi NNE 11.5 mph 23.0 mph 0.02 in Rain Rain
4:13 PM 33.8 °F 26.4 °F 32.0 °F 93% 30.03 in 1.5 mi North 9.2 mph 19.6 mph 0.09 in Rain Heavy Rain
4:25 PM 33.8 °F 25.8 °F 32.0 °F 93% 30.04 in 3.0 mi NNE 10.4 mph 19.6 mph 0.11 in Rain Light Rain
4:53 PM 34.0 °F 25.5 °F 32.0 °F 92% 30.04 in 4.0 mi North 11.5 mph 18.4 mph 0.12 in Rain , Thunderstorm Light Rain
5:10 PM 33.8 °F 23.9 °F 32.0 °F 93% 30.04 in 2.0 mi ENE 15.0 mph 24.2 mph 0.13 in Rain , Thunderstorm Heavy Thunderstorms and Rain
5:25 PM 33.8 °F 24.3 °F 32.0 °F 93% 30.03 in 2.5 mi NE 13.8 mph 26.5 mph 0.27 in Rain Heavy Rain
5:35 PM 33.8 °F 23.9 °F 32.0 °F 93% 30.02 in 1.8 mi NNE 15.0 mph 20.7 mph 0.39 in Rain Heavy Rain
5:41 PM 33.8 °F 27.0 °F 32.0 °F 93% 30.04 in 3.0 mi North 8.1 mph 19.6 mph 0.42 in Rain Heavy Rain
5:53 PM 34.0 °F 26.6 °F 32.0 °F 92% 30.01 in 4.0 mi NNE 9.2 mph 19.6 mph 0.48 in Rain Rain
6:53 PM 34.0 °F 28.0 °F 30.9 °F 89% 30.08 in 10.0 mi North 6.9 mph - 0.03 in Rain Light Rain
7:31 PM 33.8 °F 27.7 °F 32.0 °F 93% 30.12 in 7.0 mi Variable 6.9 mph - 0.10 in Rain Light Rain
7:51 PM 33.8 °F 27.7 °F 30.2 °F 87% 30.11 in 6.0 mi NW 6.9 mph - 0.15 in Rain Light Rain
7:53 PM 34.0 °F 26.6 °F 30.9 °F 89% 30.11 in 7.0 mi North 9.2 mph - 0.16 in Rain Light Rain
8:06 PM 33.8 °F 27.7 °F 32.0 °F 93% 30.12 in 9.0 mi Variable 6.9 mph - 0.01 in Rain Rain
8:53 PM 34.0 °F 28.0 °F 30.9 °F 89% 30.11 in 10.0 mi Variable 6.9 mph 17.3 mph 0.09 in Rain Light Rain
9:00 PM 33.8 °F 26.4 °F 30.2 °F 87% 30.08 in 10.0 mi NNE 9.2 mph 17.3 mph 0.00 in Rain Light Rain
9:41 PM 33.8 °F 27.7 °F 30.2 °F 87% 30.11 in 10.0 mi Variable 6.9 mph 20.7 mph 0.01 in Rain Light Rain
9:53 PM 34.0 °F 26.6 °F 30.9 °F 89% 30.14 in 10.0 mi North 9.2 mph - 0.01 in   Overcast
10:31 PM 33.8 °F 28.6 °F 30.2 °F 87% 30.15 in 10.0 mi Variable 5.8 mph - N/A   Overcast
10:41 PM 33.8 °F 27.0 °F 30.2 °F 87% 30.15 in 10.0 mi North 8.1 mph - N/A   Overcast
10:53 PM 34.0 °F 28.0 °F 30.9 °F 89% 30.16 in 10.0 mi Variable 6.9 mph - N/A   Overcast
11:53 PM 33.1 °F 23.9 °F 28.9 °F 85% 30.20 in 10.0 mi North 12.7 mph 20.7 mph N/A   Overcast